This is the latest recevied weather packets stored in our database for station/object SP9MUF-14. If no packets are shown the sender has not sent any weather packets the latest 10 day(s).
| Time | Temp. | Humidity | Pressure | Rain* | Wind** | Luminosity | Snow |
|---|---|---|---|---|---|---|---|
| 1787653584 | 13.89° C | 88% | 1019.4 hPa | 0.76 mm | - | 44 W/m² | - |
| 1787653281 | 13.89° C | 87% | 1019.9 hPa | 0.76 mm | - | 56 W/m² | - |
| 1787652983 | 13.89° C | - | - | 0.76 mm | - | - | - |
| 1787652979 | 13.89° C | 87% | 1019.4 hPa | 0.76 mm | - | 58 W/m² | - |
| 1787652676 | 13.89° C | 87% | 1019.4 hPa | 0.76 mm | - | 57 W/m² | - |
| 1787652072 | 15° C | 86% | 1019.5 hPa | 0.76 mm | - | 78 W/m² | - |
| 1787651769 | 15° C | 85% | 1019.6 hPa | 0.25 mm | - | 80 W/m² | - |
| 1787651467 | 15° C | 84% | 1019.8 hPa | 0.25 mm | - | 78 W/m² | - |
| 1787651165 | 15° C | 83% | 1019.7 hPa | 0 mm | - | 72 W/m² | - |
| 1787650863 | 15° C | 82% | 1019.8 hPa | 0 mm | - | 60 W/m² | - |
| 1787650561 | 15° C | 78% | 1019.7 hPa | 0 mm | - | 50 W/m² | - |
| 1787650258 | 15° C | 76% | 1019.7 hPa | 0 mm | - | 40 W/m² | - |
| 1787649956 | 15° C | 75% | 1019.5 hPa | 0 mm | - | 34 W/m² | - |
| 1787649654 | 15° C | 75% | 1019.4 hPa | 0 mm | - | 31 W/m² | - |
| 1787649352 | 15° C | 73% | 1019.1 hPa | 0 mm | - | 59 W/m² | - |
| 1787649049 | 15° C | 73% | 1019.1 hPa | 0 mm | - | 60 W/m² | - |
| 1787648747 | 15° C | 73% | 1019.2 hPa | 0 mm | - | 93 W/m² | - |
| 1787648445 | 15.56° C | 73% | 1019.3 hPa | 0 mm | - | 87 W/m² | - |
| 1787647840 | 15.56° C | 72% | 1019.2 hPa | 0 mm | - | 101 W/m² | - |
| 1787647538 | 15.56° C | 73% | 1016.2 hPa | 0 mm | - | 114 W/m² | - |
| 1787647236 | 15° C | 73% | 1019.4 hPa | 0 mm | - | 135 W/m² | - |
| 1787646934 | 15° C | 74% | 1019.4 hPa | 0 mm | - | 166 W/m² | - |
| 1787646329 | 15° C | 74% | 1019.2 hPa | 0 mm | - | 113 W/m² | - |
| 1787646027 | 15° C | 74% | 1019.2 hPa | 0 mm | - | 101 W/m² | - |
| 1787645725 | 15° C | 74% | 1019.2 hPa | 0 mm | - | 86 W/m² | - |
* Rain latest hour (hover to see other rain measurements)
** Current wind speed in m/s (hover to see current wind gust speed)